Summit, NJ (07901)

4:05 PM EDT on August 25, 2016 (GMT -0400)
Summit MUNI | | Change Station

Elev 189 ft 40.74 °N, 74.37 °W | Updated 23 days ago

Mostly Cloudy
Mostly Cloudy
83 °F
Feels Like 85 °F
N
8
Wind Variable Wind from SW
Gusts mph

Today
High -- | Low -- °F
--% Chance of Precip.
Yesterday
High -- | Low -- °F
Precip. -- in
Pressure 30.01 in
Visibility 15.0 miles
Clouds Overcast 4600 ft
Heat Index 85 °F
Dew Point 68 °F
Humidity 61%
Rainfall in
Snow Depth Not available.
6:18 AM 7:39 PM
Last Quarter, 42% visible
METAR KMMU 251945Z 23007KT 15SM OVC046 29/21 A3001
Pressure 30.01 in
Visibility 15.0 miles
Clouds Overcast 4600 ft
Heat Index 85 °F
Dew Point 68 °F
Humidity 61%
Rainfall in
Snow Depth Not available.
6:18 AM 7:39 PM
Last Quarter, 42% visible
METAR KMMU 251945Z 23007KT 15SM OVC046 29/21 A3001
A tropical disturbance pushing toward the Bahamas, is expected to develop into a tropical depression or storm, and will likely target Florida and the Gulf Coast this weekend into next week.

Right now, the disturbance remains a broad area of low pressure pushing through the Dominican Republic and Haiti, headed toward the southeast Bahamas. Rainfall totals over 3 inches (with locally higher amounts) are expected in HispaƱiola, particularly over elevated terrain.

10-Day Weather Forecast

Almanac

Astronomy

Aug. 25, 2016 Rise Set
Actual Time
Civil Twilight
Nautical Twilight
Astronomical Twilight
Moon
Length of Visible Light
Length of Day
Tomorrow will be .
, % of the Moon is Illuminated

Today's Extremes

State Highs State Lows

Community

WunderPhotos

Upload Photos

1,934,921 photos uploaded!

WunderBlog® & News

Nearby

Air Quality

  Air Quality AQ Index Pollutant
Not available.

Snow Depth

Station Depth Elevation

Earthquake Activity

City Distance Mag. Time & Date
Minimum magnitude displayed is 2.5.

Coastal Water Temperatures

Place Temperature

Stations

Nearby Weather Stations

Station Location Temp. Windchill Dew Point Humidity Wind Precip. Elev Updated Type
                   

Watches & Warnings

There are currently no watches in effect.